Regional Weather Roundup
Issued by NWS Cleveland, OH

Current Version | Previous Version | Text Only | Print | Product List | Glossary On
Versions: 1 2 3 4 5 6 7 8 9 10 11 12 13 14 15 16 17 18 19 20 21 22 23 24 25 26 27 28 29 30 31 32 33 34 35 36 37 38 39 40 41 42 43 44 45 46 47 48 49 50
000 ASUS41 KCLE 170002 RWRCLE OHIO REGIONAL WEATHER ROUNDUP NATIONAL WEATHER SERVICE CLEVELAND, OH 800 PM EDT THU AUG 16 2018 NOTE: "FAIR" INDICATES FEW OR NO CLOUDS BELOW 12,000 FEET WITH NO SIGNIFICANT WEATHER AND/OR OBSTRUCTIONS TO VISIBILITY. OHZ001>008-015>018-024>027-034-035-043-044-170100- NORTHWEST OHIO CITY SKY/WX TMP DP RH WIND PRES REMARKS DEFIANCE CLOUDY 76 73 91 S6 29.95R FINDLAY CLOUDY 76 71 85 S8 29.96S TOLEDO EXPRESS CLOUDY 76 72 87 S6 29.95R TOLEDO EXEC LGT RAIN 74 73 97 S8 29.96S FOG LIMA LGT RAIN 74 72 93 S8 29.98R $$ OHZ009>014-019>023-028>033-038-089-170100- NORTHEAST OHIO CITY SKY/WX TMP DP RH WIND PRES REMARKS CLE-HOPKINS CLOUDY 75 69 81 S10 30.03S CLE-LAKEFRONT CLOUDY 77 67 71 S13 29.99S CUY CO. ARPT CLOUDY 77 68 73 S14 30.02S LORAIN-ELYRIA CLOUDY 74 65 73 S7 30.01S ASHTABULA CLOUDY 76 69 79 SW9 30.04S AKRON-CANTON CLOUDY 76 65 68 SW14G21 30.05S WOOSTER CLOUDY 73 67 81 S13 30.04S MANSFIELD CLOUDY 74 69 85 S13 30.03S YOUNGSTOWN LGT RAIN 76 66 71 S8 30.05F $$ OHZ042-051>053-060>062-070>072-077>081-170100- SOUTHWEST OHIO CITY SKY/WX TMP DP RH WIND PRES REMARKS CINC-COVINGTON LGT RAIN 74 73 97 S5 30.01F CINC-LUNKEN HVY RAIN 76 74 93 SW9 30.01R FOG HAMILTON LGT RAIN 79 73 82 SW9G16 30.00R DAYTON CLOUDY 76 71 85 S9 30.01S WRIGHT-PAT AFB CLOUDY 77 72 83 S7 30.01R DAYTON GENERAL CLOUDY 78 71 79 S9 30.00S WILMINGTON CLOUDY 75 73 93 S6 30.02S $$ OHZ036-037-039>041-045>050-054>059-063>069-073>076-082>088-170100- CENTRAL AND SOUTHEAST OHIO CITY SKY/WX TMP DP RH WIND PRES REMARKS COLUMBUS MOCLDY 77 70 79 S7 30.01F OSU AIRPORT MOCLDY 76 71 85 S6 30.01S BOLTON FIELD NOT AVBL RICKENBACK AFB CLOUDY 77 70 79 S9 30.02S NEWARK CLOUDY 77 70 79 S7 30.03S MARION CLOUDY 74 69 85 S10 30.01S LANCASTER CLOUDY 77 72 84 S7 30.03F ZANESVILLE CLOUDY 75 68 78 S8 30.05S NEW PHILLY NOT AVBL $$

USA.gov is the U.S. government's official web portal to all federal, state and local government web resources and services.